Weather History for CWSS - September, 2012

Change the Weather History Date:

Friday, September 14, 2012

  Actual Average Record
Temperature  
Mean Temperature 62 °F -  
Max Temperature 75 °F - - ()
Min Temperature 50 °F - - ()
Degree Days  
Heating Degree Days 2    
Growing Degree Days 12 (Base 50)    
Moisture  
Dew Point 59 °F    
Average Humidity 86    
Maximum Humidity 97    
Minimum Humidity 63    
Precipitation  
Precipitation 0.00 in - - ()
Sea Level Pressure  
Sea Level Pressure 30.21 in    
Wind  
Wind Speed 2 mph ()    
Max Wind Speed 8 mph    
Max Gust Speed -    
T = Trace of Precipitation, MM = Missing Value Source: Averaged Metar Reports

Daily Weather History Graph

Daily Weather History Graph

Search for Another Location

Airport or City:

Trip Planner

Search our weather history database for the weather conditions in past years. The results will help you decide how hot, cold, wet, or windy it might be!

Date:

Astronomy

Sep. 14, 2012 Rise Set
Actual Time 7:06 AM ADT 7:41 PM ADT
Civil Twilight 6:37 AM ADT 8:10 PM ADT
Nautical Twilight 6:02 AM ADT 8:45 PM ADT
Astronomical Twilight 5:25 AM ADT 9:21 PM ADT
Moon 5:24 AM ADT (9/14) 6:36 PM ADT (9/14)
Length of Visible Light 13h 33m
Length of Day
12h 34m
Waning Crescent, 3% of the Moon is Illuminated
Sep 14
Waning Crescent
Sep 15
New
Sep 22
First Quarter
Sep 30
Full
Oct 8
Last Quarter

Hourly Weather History & Observations

Time (ADT) Temp. Dew Point Humidity Pressure Visibility Wind Dir Wind Speed Gust Speed Precip Events Conditions
12:00 AM 54 °F 53 °F 94% 30.25 in - ESE 1.2 mph - -  
12:00 AM 53.8 °F 52.7 °F 96% 30.25 in - ESE 1.2 mph - N/A   Unknown
1:00 AM 52.0 °F 51.1 °F 97% 30.25 in - Calm Calm - N/A   Unknown
2:00 AM 50.7 °F 49.8 °F 97% 30.25 in - Calm Calm - N/A   Unknown
3:00 AM 52 °F 51 °F 96% 30.25 in - Calm Calm - -  
3:00 AM 52.0 °F 51.3 °F 97% 30.25 in - Calm Calm - N/A   Unknown
4:00 AM 54.0 °F 53.2 °F 97% 30.24 in - Calm Calm - N/A   Unknown
5:00 AM 56.3 °F 55.6 °F 97% 30.24 in - East 1.2 mph - N/A   Unknown
6:00 AM 60 °F 59 °F 94% 30.23 in - SE 2.3 mph - -  
6:00 AM 59.5 °F 58.8 °F 97% 30.23 in - SE 2.3 mph - N/A   Unknown
7:00 AM 59.7 °F 59.0 °F 97% 30.24 in - SSE 2.3 mph - N/A   Unknown
8:00 AM 60.1 °F 59.4 °F 97% 30.24 in - South 3.5 mph - N/A   Unknown
9:00 AM 61 °F 60 °F 95% 30.24 in - South 1.2 mph - -  
9:00 AM 60.8 °F 59.9 °F 97% 30.24 in - South 1.2 mph - N/A   Unknown
10:00 AM 61.9 °F 60.4 °F 95% 30.24 in - South 3.5 mph - N/A   Unknown
11:00 AM 63.5 °F 61.2 °F 92% 30.23 in - SSW 3.5 mph - N/A   Unknown
12:00 PM 68 °F 62 °F 75% 30.22 in - South 4.6 mph - -  
12:00 PM 68.0 °F 61.9 °F 81% 30.22 in - South 4.6 mph - N/A   Unknown
1:00 PM 71.4 °F 62.6 °F 74% 30.21 in - East 3.5 mph - N/A   Unknown
2:00 PM 72.7 °F 63.7 °F 73% 30.19 in - East 6.9 mph - N/A   Unknown
3:00 PM 72 °F 64 °F 68% 30.18 in - East 5.8 mph - -  
3:00 PM 72.1 °F 63.5 °F 74% 30.18 in - East 5.8 mph - N/A   Unknown
4:00 PM 72.7 °F 63.3 °F 72% 30.17 in - ESE 6.9 mph - N/A   Unknown
5:00 PM 74.8 °F 62.2 °F 65% 30.16 in - South 6.9 mph - N/A   Unknown
6:00 PM 72 °F 62 °F 63% 30.15 in - South 8.1 mph - -  
6:00 PM 72.3 °F 62.1 °F 70% 30.15 in - South 8.1 mph - N/A   Unknown
7:00 PM 68.7 °F 61.2 °F 77% 30.16 in - SSE 4.6 mph - N/A   Unknown
8:00 PM 64.0 °F 60.6 °F 89% 30.16 in - SE 3.5 mph - N/A   Unknown
9:00 PM 64 °F 61 °F 86% 30.16 in - SSE 3.5 mph - -  
9:00 PM 63.9 °F 60.8 °F 90% 30.16 in - SSE 3.5 mph - N/A   Unknown
10:00 PM 63.9 °F 60.3 °F 88% 30.14 in - South 5.8 mph - N/A   Unknown
11:00 PM 63.9 °F 59.9 °F 87% 30.13 in - SSE 4.6 mph - N/A   Unknown